TimeEDT,TemperatureF,Dew PointF,Humidity,Sea Level PressureIn,VisibilityMPH,Wind Direction,Wind SpeedMPH,Gust SpeedMPH,PrecipitationIn,Events,Conditions,WindDirDegrees,DateUTC
12:53 AM,79.0,73.9,84,29.88,10.0,SSW,4.6,-,N/A,,Mostly Cloudy,210,2013-07-10 04:53:00
1:53 AM,80.1,73.0,79,29.86,10.0,SW,8.1,-,N/A,,Clear,230,2013-07-10 05:53:00
2:53 AM,80.1,73.9,81,29.85,10.0,WSW,10.4,-,N/A,,Clear,240,2013-07-10 06:53:00
3:53 AM,79.0,73.0,82,29.85,10.0,West,9.2,-,N/A,,Clear,260,2013-07-10 07:53:00
4:53 AM,79.0,73.0,82,29.84,10.0,WSW,5.8,-,N/A,,Clear,250,2013-07-10 08:53:00
5:53 AM,78.1,73.0,84,29.84,10.0,SW,5.8,-,N/A,,Clear,220,2013-07-10 09:53:00
6:53 AM,77.0,73.0,88,29.84,10.0,SSW,3.5,-,N/A,,Scattered Clouds,210,2013-07-10 10:53:00
7:53 AM,80.1,73.9,81,29.85,8.0,West,5.8,-,N/A,,Mostly Cloudy,260,2013-07-10 11:53:00
8:33 AM,80.6,73.4,79,29.86,4.0,West,5.8,-,N/A,,Haze,270,2013-07-10 12:33:00
8:53 AM,81.0,75.0,82,29.84,4.0,West,5.8,-,N/A,,Haze,280,2013-07-10 12:53:00
9:45 AM,82.4,73.4,74,29.86,10.0,WSW,6.9,-,N/A,,Mostly Cloudy,240,2013-07-10 13:45:00
9:53 AM,81.0,73.9,79,29.84,7.0,West,5.8,-,N/A,,Mostly Cloudy,270,2013-07-10 13:53:00
10:23 AM,82.4,73.4,74,29.85,7.0,West,8.1,-,N/A,,Mostly Cloudy,280,2013-07-10 14:23:00
10:53 AM,82.0,72.0,71,29.84,10.0,WNW,9.2,-,N/A,,Mostly Cloudy,290,2013-07-10 14:53:00
11:50 AM,82.4,71.6,70,29.85,10.0,NW,9.2,-,N/A,,Scattered Clouds,310,2013-07-10 15:50:00
11:53 AM,84.0,72.0,67,29.83,10.0,WNW,11.5,-,N/A,,Scattered Clouds,300,2013-07-10 15:53:00
12:53 PM,82.0,71.1,69,29.85,10.0,WNW,12.7,20.7,N/A,,Scattered Clouds,290,2013-07-10 16:53:00
1:53 PM,82.0,68.0,62,29.84,10.0,NW,16.1,21.9,N/A,,Scattered Clouds,320,2013-07-10 17:53:00
2:53 PM,81.0,62.1,52,29.87,10.0,WNW,17.3,26.5,N/A,,Partly Cloudy,300,2013-07-10 18:53:00
3:53 PM,80.1,60.1,50,29.88,10.0,NNW,19.6,23.0,N/A,,Partly Cloudy,330,2013-07-10 19:53:00
4:53 PM,78.1,57.0,48,29.88,10.0,WNW,18.4,26.5,N/A,,Clear,300,2013-07-10 20:53:00
5:53 PM,77.0,57.0,50,29.87,10.0,NW,13.8,24.2,N/A,,Clear,320,2013-07-10 21:53:00
6:53 PM,75.0,57.0,53,29.89,10.0,NNW,17.3,-,N/A,,Clear,330,2013-07-10 22:53:00
7:53 PM,73.9,55.9,53,29.90,10.0,NW,13.8,-,N/A,,Clear,320,2013-07-10 23:53:00
8:53 PM,72.0,55.9,57,29.92,10.0,NNW,8.1,-,N/A,,Partly Cloudy,340,2013-07-11 00:53:00
9:53 PM,66.0,55.0,68,29.96,10.0,North,6.9,-,N/A,,Clear,350,2013-07-11 01:53:00
10:53 PM,64.0,54.0,70,29.97,10.0,North,6.9,-,N/A,,Clear,350,2013-07-11 02:53:00
11:53 PM,64.9,55.0,70,29.99,10.0,NW,3.5,-,N/A,,Clear,320,2013-07-11 03:53:00